Douglas Barbosa

Olheiro-Chefe - Fortaleza
20 Jan 2028
Quinta-feira
Processo

Personalidade

Adaptabilidade (12) Ambição (7) Controvérsia (8) Lealdade (18) Pressão (4) Profissionalismo (9) Espírito Esportivo (2) Temperamento (2)

Perfil

Estilo de Treinamento Democrático
Licença Continental B
Determinação 14
Gestão de Pessoas 6
Motivação 11
Disciplina 14
Satisfação no Trabalho
100%
Fadiga
0%
Função Olheiro-Chefe
Salário 28.3K p/s
Contrato 14.03.2028

Desempenho

Comportamento Bom
Eficácia do Treinamento
46%
Desenvolvimento do Jogador
60%
Prevenção de Lesões
45%
Implementação Tática
30%

Eventos Recentes

Participou de uma reunião de recrutamento agora
Participou de uma reunião de recrutamento agora
Participou de uma reunião de recrutamento agora
Participou de uma reunião de recrutamento agora
Negociação de contrato iniciada agora
Participando de desenvolvimento profissional agora
Avaliou um jogador agora
Negociação de contrato iniciada agora

Monitorando agora

241
Jogador Clube Status Habilidade Confiança Observado Última observação Último voto
Luca Williams-Barnett Tranmere Rovers Ativo 115 / 132 40% 1 19.01.2028 -
Nicolas Sport Recife Ativo 111 / 111 40% 1 19.01.2028 -
Zakhar Chushkin Spartak Moscow Ativo 85 / 100 40% 1 18.01.2028 -
Tomás Peixoto Porto Ativo 80 / 98 40% 1 18.01.2028 -
André Miranda Porto Ativo 103 / 108 40% 2 17.01.2028 -
Shea Lacey Wolverhampton Ativo 126 / 142 40% 1 17.01.2028 -
Ognjen Bondžulić Mladost Lucani Ativo 120 / 109 40% 1 16.01.2028 -
Gilbert Bandama Maccabi Haifa Ativo 117 / 135 40% 1 16.01.2028 -
Ryan Kavuma-McQueen Accrington Stanley Ativo 117 / 126 40% 1 14.01.2028 -
Luis Otávio Colorado Rapids Ativo 103 / 114 40% 1 14.01.2028 -
Federico Coletta Benfica Ativo 110 / 104 40% 1 12.01.2028 -
Mateo Peralta Danubio Ativo 120 / 118 40% 1 12.01.2028 -
Tiziano Cabrera Central Norte Ativo 76 / 93 40% 1 11.01.2028 -
Oskar Pietuszewski Nacional Ativo 130 / 146 40% 1 11.01.2028 -
Themba Dala Ajax Cape Town Ativo 135 / 133 40% 1 10.01.2028 -
Igor Tyjon Doncaster Rovers Ativo 96 / 133 40% 1 09.01.2028 -
Martim Cunha Porto Ativo 112 / 111 40% 1 09.01.2028 -
Gorka Gorosabel Real Sociedad Ativo 112 / 114 40% 1 08.01.2028 -
Luis Vidal Deportivo Pereira Ativo 83 / 96 40% 1 08.01.2028 -
Ryan McAidoo Gillingham Ativo 123 / 142 40% 1 06.01.2028 -
Paulo Iago Sporting CP Ativo 103 / 119 40% 1 06.01.2028 -
Ibrahim Fullah Charlton Athletic Ativo 118 / 135 40% 1 05.01.2028 -
Oumar Camara Braga Ativo 119 / 122 40% 1 05.01.2028 -
Duarte Cunha Porto Ativo 94 / 113 40% 1 04.01.2028 -
Fredrik Ardraa Stromsgodset Ativo 97 / 101 40% 1 03.01.2028 -
Kerim Alajbegović Modena Ativo 146 / 133 40% 1 03.01.2028 -
Ruben van Bommel Ferencvaros Ativo 144 / 126 40% 2 27.12.2027 -
Bénie Traoré New York City Ativo 121 / 124 40% 7 27.12.2027 -
Vitão Atlético Mineiro Ativo 101 / 123 55% 1 27.12.2027 -
Jesus Ferreira Seattle Sounders Ativo 140 / 131 40% 2 13.12.2027 -
Tomás Chancalay Minnesota United FC Ativo 137 / 130 40% 3 13.12.2027 -
Morgan Guilavogui Real Salt Lake Ativo 118 / 127 40% 3 30.11.2027 -
Gustavo Del Prete San Lorenzo Ativo 118 / 117 40% 1 30.11.2027 -
Dejan Joveljić Seattle Sounders Ativo 140 / 129 40% 6 29.11.2027 -
Sam Surridge Nashville SC Ativo 124 / 128 40% 5 29.11.2027 -
Alexis Cuello San Lorenzo Ativo 119 / 133 40% 7 28.11.2027 -
Kévin Denkey FC Cincinnati Ativo 121 / 128 40% 3 28.11.2027 -
Nəriman Axundzadə Columbus Crew Ativo 125 / 125 40% 4 26.11.2027 -
Vitinho Internacional Ativo 120 / 122 40% 2 26.11.2027 -
Alejo Veliz Bahia Ativo 145 / 137 40% 2 24.11.2027 -
Luca Langoni Colorado Rapids Ativo 134 / 130 40% 4 23.11.2027 -
Emmanuel Sabbi Vancouver Whitecaps Ativo 118 / 125 40% 4 23.11.2027 -
Max Fenger IFK Goteborg Ativo 141 / 135 40% 3 22.11.2027 -
Armindo Sieb Los Angeles Football Club Ativo 122 / 119 40% 2 21.11.2027 -
Fábio Carvalho Sheffield Wednesday Ativo 163 / 133 40% 1 21.11.2027 Mais informações
Martín Ojeda Orlando City Ativo 145 / 131 40% 4 20.11.2027 -
Tomás Conechny Racing Club Ativo 136 / 132 40% 1 19.11.2027 -
Rafael Navarro St. Louis CITY SC Ativo 135 / 136 40% 4 17.11.2027 -
Agustín Anello Philadelphia Union Ativo 129 / 125 40% 3 17.11.2027 -
Wessam Abou Ali Columbus Crew Ativo 133 / 136 40% 6 15.11.2027 -
Josh Sargent Toronto FC Ativo 132 / 131 40% 4 14.11.2027 -
Rodrigo Castillo Fluminense Ativo 138 / 132 40% 2 11.11.2027 -
Leonardo Campana New England Revolution Ativo 128 / 129 40% 6 10.11.2027 -
Daniel Karlsbakk Sarpsborg 08 Ativo 140 / 127 40% 1 10.11.2027 -
Theo Corbeanu Toronto FC Ativo 122 / 134 40% 1 09.11.2027 -
Isidro Pitta Bragantino Ativo 137 / 122 40% 2 06.11.2027 -
Mads Bomholt Stabaek Ativo 110 / 110 40% 1 05.11.2027 -
Brandon Álvarez Penarol Ativo 97 / 92 40% 1 05.11.2027 -
Louis Munteanu DC United Ativo 141 / 121 40% 1 05.11.2027 Mais informações
Antony Alonso Deportivo Riestra Ativo 119 / 117 40% 2 04.11.2027 -
Pedro Raul Corinthians Ativo 112 / 130 40% 3 29.10.2027 -
Diego García Malmo FF Ativo 143 / 125 40% 3 25.10.2027 -
Vegard Erlien Tromso Ativo 126 / 133 40% 1 24.10.2027 -
Tadeo Allende Inter Miami CF Ativo 132 / 130 40% 3 18.10.2027 -
Sead Hakšabanović Malmo FF Ativo 112 / 112 40% 2 18.10.2027 -
Paulos Abraham Hammarby Ativo 109 / 115 40% 1 12.10.2027 -
Cheikh Sabaly Vancouver Whitecaps Ativo 124 / 116 40% 2 11.10.2027 -
Kerwin Vargas Seattle Sounders Ativo 123 / 125 40% 1 08.10.2027 -
Yeferson Soteldo Bahia Ativo 123 / 127 40% 1 08.10.2027 -
Brandon Vázquez Austin FC Ativo 121 / 127 40% 1 05.10.2027 -
Afimico Pululu Rosario Central Ativo 121 / 127 40% 1 04.10.2027 -
Ferreirinha Sport Recife Ativo 128 / 127 40% 2 03.10.2027 -
Maurice Malone Minnesota United FC Ativo 134 / 120 40% 2 02.10.2027 -
Lucas Villalba Botafogo Ativo 129 / 133 40% 1 01.10.2027 -
Duncan McGuire Houston Dynamo Ativo 129 / 134 40% 2 30.09.2027 -
Claudio Spinelli Vasco da Gama Ativo 132 / 127 40% 1 28.09.2027 -
Timo Werner San Jose Earthquakes Ativo 140 / 132 40% 1 28.09.2027 -
Negueba Mirassol Ativo 115 / 132 55% 4 26.09.2027 -
Maximiliano Gómez Nacional Ativo 114 / 116 40% 1 26.09.2027 -
Alejo Cruz Juventud Ativo 113 / 121 40% 1 07.09.2027 -
Yuma Suzuki Urawa Reds Ativo 117 / 123 40% 1 06.09.2027 -
John Kennedy Fluminense Ativo 120 / 128 40% 1 05.09.2027 -
João Klauss LA Galaxy Ativo 121 / 121 40% 1 04.09.2027 -
Luca Martínez Dupuy Godoy Cruz Ativo 123 / 124 40% 1 01.09.2027 -
Billal Messaoudi JS Kabylie Ativo 113 / 118 40% 1 30.08.2027 -
Mateo Cassierra Atlético Mineiro Ativo 137 / 139 40% 2 28.08.2027 -
Alexander Aravena Portland Timbers Ativo 132 / 132 40% 1 24.08.2027 -
Emmanuel Boateng Hapoel Tel Aviv Ativo 133 / 135 40% 2 23.08.2027 -
Matheus Davó Maccabi Netanya Ativo 132 / 123 40% 1 21.08.2027 -
Giuseppe Di Serio Spezia Ativo 132 / 133 40% 1 20.08.2027 -
Nikola Vlašić Torino Ativo 158 / 138 40% 1 20.08.2027 -
Che Adams Torino Ativo 149 / 138 40% 1 19.08.2027 -
Giacomo Raspadori Atalanta Ativo 139 / 159 40% 4 17.08.2027 -
Zakaria Aboukhlal Torino Ativo 155 / 128 40% 1 16.08.2027 -
David Romero Parma Ativo 134 / 138 40% 1 15.08.2027 -
Luciano Cosentino Wanderers Ativo 113 / 125 40% 1 14.08.2027 -
John Okoye Ebuka Ittihad Ativo 108 / 124 40% 1 10.08.2027 -
Mohamed-Ali Cho Hull City Ativo 153 / 151 40% 1 09.08.2027 -
Kyle Wootton Stockport County Ativo 123 / 127 40% 2 07.08.2027 -
Bernat Guiu Virtus Entella Ativo 130 / 117 40% 1 07.08.2027 -
Dávid Strelec Middlesbrough Ativo 143 / 150 40% 2 06.08.2027 -
Carlton Morris Derby County Ativo 122 / 119 40% 1 06.08.2027 -
Wilson Isidor Sunderland Ativo 145 / 152 40% 2 05.08.2027 -
Nicolò Zaniolo Udinese Ativo 162 / 145 40% 1 05.08.2027 -
Zian Flemming Ipswich Town Ativo 130 / 147 40% 4 04.08.2027 -
Elijah Adebayo Luton Town Ativo 113 / 131 40% 1 03.08.2027 -
Moussa Dembélé CR Belouizdad Ativo 142 / 125 40% 1 19.07.2027 -
Luis Vázquez Birmingham Ativo 150 / 141 40% 1 19.07.2027 -
Tom Cannon Sheffield United Ativo 137 / 127 40% 1 28.06.2027 -
Yuri Alberto Köln Negociando 140 / 141 67% 1 01.06.2027 Aprovar
Bright Arrey-Mbi Braga Ativo 132 / 139 40% 3 17.04.2027 -
Javi Sánchez Arouca Ativo 141 / 136 40% 1 17.04.2027 -
Víctor Gómez Braga Ativo 156 / 132 40% 5 16.04.2027 -
Ryan Sessegnon Fulham Ativo 131 / 134 40% 1 16.04.2027 -
Marios Vrousai Rio Ave Ativo 113 / 122 40% 4 15.04.2027 -
Zé Carlos Gil Vicente Ativo 140 / 114 40% 1 14.04.2027 -
Dinis Pinto Moreirense Ativo 141 / 122 40% 1 14.04.2027 -
Darlin Yongwa Norwich City Ativo 128 / 123 40% 1 12.04.2027 -
Josh Tymon Swansea City Ativo 133 / 135 40% 2 11.04.2027 -
João Mendes Vitoria Guimaraes Ativo 135 / 129 40% 1 11.04.2027 -
Harry Clarke Preston Ativo 135 / 125 40% 2 08.04.2027 -
Saša Lukić Ipswich Town Ativo 135 / 134 40% 2 08.04.2027 -
Callum Doyle Wrexham Ativo 125 / 141 40% 1 02.04.2027 -
Joan Jordán Estrela da Amadora Ativo 112 / 127 40% 2 31.03.2027 -
Lohann Doucet Vitoria Guimaraes Ativo 118 / 122 40% 1 31.03.2027 -
Bradley Locko Stade Brestois Ativo 142 / 135 40% 1 30.03.2027 -
Romain Perraud LOSC Lille Ativo 151 / 136 40% 1 29.03.2027 -
Joaquim Tigres Ativo 120 / 123 40% 2 27.03.2027 -
Ross McCrorie Bristol City Ativo 110 / 123 40% 1 27.03.2027 -
Gerardo Arteaga Monterrey Ativo 136 / 138 40% 1 26.03.2027 -
Beni Mukendi Vitoria Guimaraes Ativo 131 / 131 40% 1 26.03.2027 -
Mandla Erasmus SuperSport United Ativo 117 / 113 40% 1 24.03.2027 -
Finn van Breemen Famalicao Ativo 111 / 116 40% 1 22.03.2027 -
Lewis Ferguson Bologna Ativo 128 / 142 40% 1 21.03.2027 -
Tiago Esgaio Arouca Ativo 114 / 133 40% 2 20.03.2027 -
Luís Esteves Atlas Ativo 137 / 119 40% 2 19.03.2027 -
Jesús Angulo Tigres Ativo 135 / 133 40% 2 16.03.2027 -
Mateja Stjepanović Moreirense Ativo 110 / 135 40% 1 16.03.2027 -
Kevin Vazquez Cruz Azul Ativo 133 / 141 40% 2 15.03.2027 -
Francisco Moura Lusitânia Lourosa Ativo 144 / 139 40% 1 15.03.2027 -
Rafa Soares Estrela da Amadora Ativo 135 / 112 40% 1 14.03.2027 -
Pedro Santos Arouca Ativo 122 / 131 40% 1 14.03.2027 -
Valery Académico de Viseu Ativo 140 / 121 40% 2 11.03.2027 -
Aidan Morris Middlesbrough Ativo 117 / 129 40% 1 11.03.2027 -
Adonis Frías Atlas Ativo 119 / 121 40% 2 10.03.2027 -
Luke McNally Bristol City Ativo 136 / 119 40% 1 10.03.2027 -
Renato Sanches AVS Ativo 120 / 143 40% 2 06.03.2027 -
Sikou Niakaté Braga Ativo 152 / 140 40% 1 06.03.2027 -
Juan María Alcedo Torreense Ativo 134 / 120 40% 1 02.03.2027 -
Hugo Pérez Torreense Ativo 111 / 109 40% 1 02.03.2027 -
Adalberto Carrasquilla Pumas UNAM Ativo 116 / 119 40% 1 23.02.2027 -
Jack Currie Oxford United Ativo 120 / 129 40% 1 21.02.2027 -
Hamza Choudhury Leicester City Ativo 118 / 134 40% 1 20.02.2027 -
Xeka Estoril Praia Ativo 128 / 113 40% 1 16.02.2027 -
David Sousa Casa Pia Ativo 133 / 130 40% 1 16.02.2027 -
Ricard Sánchez Estoril Praia Ativo 106 / 128 40% 3 15.02.2027 -
José Hurtado Bragantino Ativo 120 / 134 40% 2 15.02.2027 -
Leonardo Realpe Famalicao Ativo 135 / 124 40% 1 10.02.2027 -
Rodrigo Pinheiro Famalicao Ativo 112 / 131 40% 1 10.02.2027 -
Dara O'Shea Ipswich Town Ativo 148 / 146 40% 1 08.02.2027 -
Kenny Tete Fulham Ativo 124 / 140 40% 1 06.02.2027 -
Max Bird Birmingham Ativo 136 / 136 40% 1 05.02.2027 -
Christian Krasnodar Ativo 139 / 119 40% 1 02.02.2027 -
Leandro Barreiro Benfica Ativo 156 / 152 40% 1 28.12.2026 -
Jan Bednarek Porto Ativo 164 / 135 40% 1 21.12.2026 -
Chuchu Ramírez Nacional Ativo 151 / 127 40% 2 14.12.2026 Mais informações
Mads Hermansen West Ham United Ativo 123 / 148 40% 2 27.11.2026 -
Erick Reyes Toluca Ativo 145 / 135 40% 2 26.11.2026 -
Cezary Miszta Rio Ave Ativo 150 / 135 40% 3 26.11.2026 -
Gaëtan Poussin Red Star Ativo 122 / 116 40% 1 25.11.2026 -
Lazar Carević Famalicao Ativo 149 / 122 40% 4 24.11.2026 -
Dean Henderson Crystal Palace Ativo 160 / 142 40% 4 23.11.2026 -
Radek Vítek Middlesbrough Ativo 124 / 126 40% 4 22.11.2026 -
Kerem Aktürkoğlu Fenerbahce Ativo 156 / 139 40% 1 21.11.2026 -
José Manuel López Palmeiras Ativo 149 / 137 40% 1 21.11.2026 -
Carlos Miguel Palmeiras Ativo 122 / 123 40% 6 19.11.2026 -
Gabriel Batista Botafogo Ativo 128 / 135 40% 5 19.11.2026 -
Alexander Bah Benfica Ativo 135 / 144 40% 1 19.11.2026 -
Tomás Araújo Benfica Ativo 135 / 149 40% 1 19.11.2026 -
Romelu Castagne KV Oostende Ativo 123 / 131 40% 1 16.11.2026 -
Nicolò Tresoldi Club Brugge Ativo 145 / 141 40% 1 16.11.2026 -
Nicolás Sumavil Platense Ativo 107 / 121 40% 1 11.11.2026 -
Arijanet Murić Sassuolo Ativo 132 / 132 40% 1 07.11.2026 -
Grégoire Coudert Burnley Ativo 139 / 118 40% 2 06.11.2026 -
Bertrand Traoré Sunderland Ativo 121 / 145 40% 1 05.11.2026 -
Manfred Ugalde Spartak Moscow Ativo 130 / 140 40% 1 03.11.2026 -
Barış Alper Yılmaz Galatasaray Ativo 164 / 132 40% 1 02.11.2026 Mais informações
Hugo Souza Corinthians Ativo 129 / 134 40% 3 01.11.2026 -
Dayne St. Clair Inter Miami CF Ativo 117 / 123 40% 1 01.11.2026 -
Jindřich Staněk KAA Gent Ativo 126 / 148 40% 1 31.10.2026 -
Pau Víctor AVS Ativo 151 / 149 40% 2 30.10.2026 -
Caio Alexandre Bahia Ativo 135 / 140 40% 1 30.10.2026 -
Matheuzinho Corinthians Ativo 144 / 127 40% 1 30.10.2026 -
Yoane Wissa Newcastle United Ativo 132 / 137 40% 1 30.10.2026 -
Paulinho Palmeiras Ativo 140 / 145 40% 2 29.10.2026 -
Gabriel Jesus Barcelona Ativo 135 / 147 40% 1 29.10.2026 -
André Ferreira Moreirense Ativo 125 / 129 40% 2 25.10.2026 -
Adriel Torreense Ativo 109 / 126 40% 2 25.10.2026 -
Michael Cooper Sheffield United Ativo 136 / 132 40% 1 23.10.2026 -
Oscar Gloukh Ajax Ativo 134 / 122 40% 1 23.10.2026 -
Roberto Ramírez Godoy Cruz Ativo 129 / 124 40% 1 19.10.2026 -
Robin Roefs Sunderland Ativo 137 / 157 40% 4 16.10.2026 -
Roman Celentano FC Cincinnati Ativo 109 / 114 40% 3 15.10.2026 -
Bernardo Fontes Braga Ativo 135 / 119 40% 3 14.10.2026 -
Roberto Fernández Braga Ativo 135 / 141 40% 4 14.10.2026 -
André Moreira Oliveirense Ativo 133 / 112 40% 1 12.10.2026 -
Rafik Guitane Estoril Praia Ativo 125 / 136 40% 1 11.10.2026 -
Carlos Moreno Pachuca Ativo 137 / 137 40% 5 07.10.2026 -
Emiliano González Almagro Ativo 119 / 112 40% 2 06.10.2026 -
João Palhinha Benfica Ativo 153 / 143 40% 1 06.10.2026 -
Yanis Begraoui Estoril Praia Ativo 113 / 145 40% 4 04.10.2026 -
Andrés Gudiño Cruz Azul Ativo 116 / 114 40% 1 03.10.2026 -
Víctor Cabezas Union Magdalena Ativo 115 / 110 40% 1 01.10.2026 -
Mathias De Amorim Famalicao Ativo 118 / 126 40% 1 01.10.2026 -
Jhon Arias Palmeiras Ativo 133 / 144 40% 1 01.10.2026 -
Carlos Vinícius Grêmio Ativo 133 / 130 40% 1 26.09.2026 -
Pablo Rosario Porto Ativo 129 / 134 40% 1 26.09.2026 -
Dodi Lukébakio Benfica Ativo 132 / 157 40% 2 24.09.2026 -
André Silva Tondela Ativo 131 / 120 40% 1 21.09.2026 -
William Gomes Porto Ativo 149 / 151 40% 1 21.09.2026 -
Caoimhin Kelleher Brentford Ativo 159 / 152 40% 3 16.09.2026 -
Antonio Gomis Vizela Ativo 96 / 123 40% 1 15.09.2026 -
Matt Freese New York City Ativo 142 / 125 40% 1 09.09.2026 -
Jean America de Cali Ativo 123 / 132 40% 1 01.09.2026 -
James Trafford Leeds United Ativo 157 / 140 40% 2 27.08.2026 -
Ignacio de Arruabarrena Arouca Ativo 106 / 128 40% 1 27.08.2026 -
Manuel Roffo Cerro Porteno Ativo 133 / 127 40% 1 25.08.2026 -
Daniel Iversen Preston Ativo 113 / 130 40% 1 24.08.2026 -
Felipe Parra Envigado Ativo 124 / 127 40% 1 23.08.2026 -
Hany Mukhtar Spezia Ativo 150 / 145 40% 1 19.08.2026 -
Myrto Uzuni Austin FC Ativo 136 / 124 40% 1 19.08.2026 -
Sergi Altimira Sporting CP Ativo 157 / 140 40% 1 15.08.2026 -
Stefanos Tzimas Brighton Ativo 129 / 133 40% 1 14.08.2026 -
Patrick Sequeira Casa Pia Ativo 104 / 118 40% 1 10.08.2026 -
Matvey Safonov Paris Saint-Germain Ativo 155 / 140 40% 1 10.08.2026 -
Christian Walton Ipswich Town Ativo 127 / 123 40% 1 09.08.2026 -
Ezequiel Centurión River Plate Ativo 111 / 111 40% 1 06.08.2026 -
Joshua Zirkzee Manchester United Ativo 137 / 135 40% 1 06.08.2026 -
Troy Parrott Betis Ativo 141 / 125 40% 1 05.08.2026 -
Antonee Robinson Fulham Ativo 128 / 138 40% 1 04.08.2026 -
Fredrik Aursnes Benfica Ativo 139 / 138 40% 1 04.08.2026 -